Cut Bank, MT

9:47 PM MDT on March 28, 2017 (GMT -0600)
Cut Bank Municipal

Weather History for KCTB - March, 2013

Change the Weather History Date:

Sunday, March 17, 2013

  Actual Average Record
Temperature  
Mean Temperature 17 °F 32 °F  
Max Temperature 26 °F 43 °F 66 °F (1910)
Min Temperature 7 °F 21 °F -18 °F (1965)
Degree Days  
Heating Degree Days 48 33  
Month to date heating degree days 594 610  
Since 1 July heating degree days 6333 6670  
Cooling Degree Days 0 0  
Month to date cooling degree days 0 0  
Year to date cooling degree days 0 0  
Moisture  
Dew Point 13 °F    
Average Humidity 82    
Maximum Humidity 100    
Minimum Humidity 64    
Precipitation  
Precipitation T in 0.01 in 0.40 in (1986)
Month to date precipitation 0.02 0.24  
Year to date precipitation 0.75 0.65  
Snow  
Snow 0.00 in - - ()
Snow Depth 2.00 in    
Sea Level Pressure  
Sea Level Pressure 29.69 in    
Wind  
Wind Speed 16 mph (NNW)    
Max Wind Speed 33 mph    
Max Gust Speed 39 mph    
Visibility 4 miles    
Events Fog , Snow    
T = Trace of Precipitation, MM = Missing Value Source: NWS Daily Summary

Daily Weather History Graph

Daily Weather History Graph

Search for Another Location

Airport or City:

Trip Planner

Search our weather history database for the weather conditions in past years. The results will help you decide how hot, cold, wet, or windy it might be!

Date:

Astronomy

Mar. 17, 2013 Rise Set
Actual Time 7:37 AM MDT 7:38 PM MDT
Civil Twilight 7:06 AM MDT 8:09 PM MDT
Nautical Twilight 6:29 AM MDT 8:46 PM MDT
Astronomical Twilight 5:52 AM MDT 9:24 PM MDT
Moon 10:26 AM MDT (3/17) 1:15 AM MDT (3/17)
Length of Visible Light 13h 03m
Length of Day
12h 00m
Waxing Crescent, 32% of the Moon is Illuminated
Mar 17
Waxing Crescent
Mar 19
First Quarter
Mar 27
Full
Apr 2
Last Quarter
Apr 10
New

Hourly Weather History & Observations

Time (MDT) Temp. Windchill Dew Point Humidity Pressure Visibility Wind Dir Wind Speed Gust Speed Precip Events Conditions
12:24 AM 24.8 °F - 23.0 °F 93% 29.54 in 2.0 mi Calm Calm - N/A   Overcast
12:32 AM 23.0 °F 17.0 °F 21.2 °F 93% 29.53 in 6.0 mi SE 4.6 mph - N/A   Overcast
12:56 AM 23.0 °F 18.4 °F 21.0 °F 92% 29.63 in 8.0 mi East 3.5 mph - N/A   Overcast
1:00 AM 23.0 °F - 21.2 °F 93% 29.52 in 2.5 mi North - - N/A   Mist
1:05 AM 24.8 °F 19.1 °F 21.2 °F 86% 29.52 in 0.8 mi SE 4.6 mph - N/A   Mist
1:14 AM 24.8 °F - 23.0 °F 93% 29.52 in 2.0 mi Calm Calm - N/A   Mist
1:25 AM 24.8 °F 19.1 °F 23.0 °F 93% 29.51 in 0.8 mi SE 4.6 mph - N/A   Mist
1:32 AM 24.8 °F - 21.2 °F 86% 29.51 in 0.2 mi Calm Calm - N/A Fog Light Freezing Fog
1:56 AM 23.0 °F - 21.9 °F 96% 29.59 in - Calm Calm - N/A   Unknown
2:09 AM 21.2 °F - 21.2 °F 100% 29.51 in 0.2 mi Calm Calm - N/A Fog Light Freezing Fog
2:30 AM 21.2 °F 14.9 °F 21.2 °F 100% 29.51 in 0.2 mi SSW 4.6 mph - N/A Fog Light Freezing Fog
2:48 AM 21.2 °F 14.9 °F 21.2 °F 100% 29.49 in 1.0 mi West 4.6 mph - N/A   Mostly Cloudy
2:56 AM 21.9 °F 17.2 °F 21.0 °F 96% 29.58 in 1.8 mi WSW 3.5 mph - N/A   Scattered Clouds
3:01 AM 23.0 °F 18.4 °F 21.2 °F 93% 29.49 in 3.0 mi SW 3.5 mph - N/A   Scattered Clouds
3:07 AM 21.2 °F 13.6 °F 21.2 °F 100% 29.49 in 1.8 mi South 5.8 mph - N/A   Scattered Clouds
3:10 AM 21.2 °F 13.6 °F 21.2 °F 100% 29.49 in 0.8 mi SSW 5.8 mph - N/A   Mist
3:37 AM 21.2 °F 13.6 °F 21.2 °F 100% 29.46 in 2.0 mi South 5.8 mph - N/A   Scattered Clouds
3:44 AM 23.0 °F 14.7 °F 21.2 °F 93% 29.46 in 10.0 mi South 6.9 mph - N/A   Partly Cloudy
3:56 AM 23.0 °F - 21.0 °F 92% 29.55 in 10.0 mi Calm Calm - N/A   Clear
4:25 AM 21.2 °F 14.9 °F 19.4 °F 93% 29.46 in 1.8 mi ENE 4.6 mph - N/A   Partly Cloudy
4:33 AM 19.4 °F - 19.4 °F 100% 29.46 in 0.5 mi Calm Calm - N/A Fog Light Freezing Fog
4:41 AM 21.2 °F 16.4 °F 19.4 °F 93% 29.46 in 1.2 mi SSE 3.5 mph - N/A   Partly Cloudy
4:46 AM 21.2 °F - 19.4 °F 93% 29.46 in 3.0 mi Calm Calm - N/A   Partly Cloudy
4:56 AM 21.9 °F - 21.0 °F 96% 29.54 in 9.0 mi Calm Calm - N/A   Clear
5:23 AM 21.2 °F 14.9 °F 19.4 °F 93% 29.46 in 2.0 mi SE 4.6 mph - N/A   Partly Cloudy
5:25 AM 21.2 °F - 19.4 °F 93% 29.46 in 1.0 mi Calm Calm - N/A   Mist
5:32 AM 21.2 °F - 19.4 °F 93% 29.46 in 0.8 mi Calm Calm - N/A   Mist
5:34 AM 21.2 °F - 19.4 °F 93% 29.46 in 1.0 mi Calm Calm - N/A   Scattered Clouds
5:43 AM 23.0 °F - 19.4 °F 86% 29.47 in - Calm Calm - N/A   Unknown
5:56 AM 25.0 °F 17.1 °F 23.0 °F 92% 29.55 in 10.0 mi WNW 6.9 mph - N/A   Unknown
6:15 AM 24.8 °F 11.9 °F 21.2 °F 86% 29.49 in 10.0 mi North 16.1 mph - N/A   Mostly Cloudy
6:30 AM 23.0 °F 7.6 °F 21.2 °F 93% 29.51 in 4.0 mi North 21.9 mph - 0.00 in Snow Light Snow
6:38 AM 21.2 °F 4.5 °F 21.2 °F 100% 29.51 in 1.8 mi North 24.2 mph - 0.00 in Snow Light Snow
6:56 AM 21.0 °F 4.6 °F 19.0 °F 92% 29.63 in 1.0 mi NNW 23.0 mph 29.9 mph 0.00 in Snow Light Snow
7:06 AM 19.4 °F 1.8 °F 17.6 °F 93% 29.53 in 0.5 mi NNW 25.3 mph 29.9 mph 0.00 in Fog , Snow Snow
7:13 AM 19.4 °F 2.1 °F 17.6 °F 93% 29.53 in 0.5 mi North 24.2 mph 31.1 mph 0.00 in Fog , Snow Snow
7:30 AM 19.4 °F 2.5 °F 15.8 °F 86% 29.55 in 0.2 mi North 23.0 mph - 0.00 in Fog , Snow Heavy Snow
7:56 AM 17.1 °F -1.0 °F 14.0 °F 88% 29.69 in 0.5 mi NNW 24.2 mph 29.9 mph 0.00 in Fog , Snow Snow
8:03 AM 15.8 °F -3.4 °F 12.2 °F 86% 29.58 in 0.5 mi NNW 26.5 mph - 0.00 in Fog , Snow Snow
8:19 AM 15.8 °F -3.7 °F 12.2 °F 86% 29.59 in - NNW 27.6 mph 35.7 mph 0.00 in Snow Light Snow
8:56 AM 12.9 °F -7.3 °F 9.0 °F 84% 29.75 in 8.0 mi NNW 26.5 mph 33.4 mph 0.00 in   Overcast
9:14 AM 12.2 °F -7.1 °F 8.6 °F 85% 29.64 in 10.0 mi NNW 23.0 mph - N/A   Overcast
9:56 AM 12.0 °F -8.5 °F 8.1 °F 84% 29.80 in 10.0 mi NNW 26.5 mph - 0.00 in   Overcast
10:39 AM 10.4 °F -11.0 °F 6.8 °F 85% 29.69 in 3.0 mi NNW 27.6 mph - 0.00 in Snow Light Snow
10:46 AM 10.4 °F -11.4 °F 5.0 °F 79% 29.69 in 3.0 mi NNW 28.8 mph 39.1 mph 0.00 in Snow Light Snow
10:56 AM 10.9 °F -11.6 °F 6.1 °F 81% 29.84 in 2.5 mi NNW 32.2 mph 39.1 mph 0.00 in Snow Light Snow
11:08 AM 10.4 °F -11.4 °F 6.8 °F 85% 29.70 in 4.0 mi North 28.8 mph 38.0 mph 0.00 in Snow Light Snow
11:24 AM 10.4 °F -11.4 °F 6.8 °F 85% 29.70 in 2.0 mi NNW 28.8 mph 34.5 mph 0.00 in Snow Light Snow
11:31 AM 10.4 °F -11.0 °F 6.8 °F 85% 29.71 in 1.2 mi NNW 27.6 mph 33.4 mph 0.00 in Snow Light Snow
11:56 AM 12.0 °F -7.7 °F 7.0 °F 80% 29.88 in 1.2 mi NNW 24.2 mph 33.4 mph 0.00 in Snow Light Snow
12:17 PM 12.2 °F -7.9 °F 5.0 °F 73% 29.75 in 2.5 mi NNW 25.3 mph 32.2 mph 0.00 in Snow Light Snow
12:24 PM 12.2 °F -7.1 °F 6.8 °F 79% 29.75 in 3.0 mi NNW 23.0 mph 31.1 mph 0.00 in Snow Light Snow
12:56 PM 12.0 °F -10.1 °F 3.9 °F 70% 29.92 in 10.0 mi NNW 32.2 mph 36.8 mph 0.00 in   Overcast
1:17 PM 12.2 °F -8.6 °F 3.2 °F 67% 29.77 in 10.0 mi NNW 27.6 mph 35.7 mph N/A   Overcast
1:56 PM 12.0 °F -8.5 °F 3.9 °F 70% 29.94 in 10.0 mi NNW 26.5 mph 34.5 mph N/A   Overcast
2:35 PM 12.2 °F -7.5 °F 5.0 °F 73% 29.79 in 7.0 mi NNW 24.2 mph 29.9 mph N/A   Overcast
2:56 PM 12.9 °F -6.5 °F 3.9 °F 67% 29.95 in 10.0 mi NNW 24.2 mph 32.2 mph N/A   Overcast
3:56 PM 14.0 °F -5.1 °F 3.9 °F 64% 29.96 in 10.0 mi NNW 24.2 mph 29.9 mph N/A   Mostly Cloudy
4:31 PM 15.8 °F -2.3 °F 3.2 °F 58% 29.83 in 10.0 mi North 23.0 mph - N/A   Overcast
4:56 PM 14.0 °F -4.7 °F 5.0 °F 67% 29.99 in 10.0 mi NNW 23.0 mph 28.8 mph N/A   Overcast
5:27 PM 14.0 °F -3.9 °F 6.8 °F 73% 29.85 in 2.5 mi NNW 20.7 mph - 0.00 in Snow Light Snow
5:33 PM 14.0 °F -3.9 °F 6.8 °F 73% 29.86 in 1.8 mi NNW 20.7 mph - 0.00 in Snow Light Snow
5:40 PM 14.0 °F -3.0 °F 6.8 °F 73% 29.86 in 3.0 mi North 18.4 mph - 0.00 in Snow Light Snow
5:56 PM 12.9 °F -3.4 °F 7.0 °F 77% 30.01 in 6.0 mi NNW 16.1 mph - 0.00 in Snow Light Snow
6:56 PM 12.0 °F -2.7 °F 3.9 °F 70% 30.06 in 10.0 mi NNW 12.7 mph - 0.00 in   Overcast
7:26 PM 12.2 °F -1.8 °F 5.0 °F 73% 29.90 in 2.5 mi North 11.5 mph - 0.00 in Snow Light Snow
7:51 PM 10.4 °F -2.4 °F 6.8 °F 85% 29.91 in 4.0 mi North 9.2 mph - 0.00 in Snow Light Snow
7:56 PM 10.9 °F -1.8 °F 7.0 °F 84% 30.08 in 5.0 mi North 9.2 mph - 0.00 in Snow Light Snow
8:03 PM 10.4 °F -3.3 °F 6.8 °F 85% 29.90 in 5.0 mi NNW 10.4 mph - 0.00 in Snow Light Snow
8:56 PM 8.1 °F -3.2 °F 5.0 °F 87% 30.10 in 8.0 mi NNW 6.9 mph - 0.00 in Snow Light Snow
9:17 PM 8.6 °F 2.0 °F 5.0 °F 85% 29.91 in 2.5 mi SSW 3.5 mph - 0.00 in Snow Light Snow
9:27 PM 8.6 °F 0.1 °F 6.8 °F 92% 29.91 in 1.5 mi WSW 4.6 mph - 0.00 in Snow Light Snow
9:32 PM 8.6 °F 2.0 °F 6.8 °F 92% 29.91 in 2.0 mi WSW 3.5 mph - 0.00 in Snow Light Snow
9:41 PM 8.6 °F 2.0 °F 6.8 °F 92% 29.91 in 6.0 mi WSW 3.5 mph - 0.00 in   Overcast
9:56 PM 10.0 °F - 7.0 °F 87% 30.11 in 10.0 mi Calm Calm - 0.00 in   Overcast
10:56 PM 10.9 °F 2.9 °F 7.0 °F 84% 30.10 in 10.0 mi South 4.6 mph - N/A   Overcast
11:56 PM 9.0 °F -2.2 °F 6.1 °F 88% 30.08 in 10.0 mi SSE 6.9 mph - N/A   Overcast